Providence Village's Hourly Summary for Thursday, March 16, 2017
Hour Temp
(f)
RH
(%)
Solar Rad.
(MJ/m2)
Rainfall
(in)
Wind
(mph)
3/16/2017 12:00 AM 53 62 0 0 4.36
3/16/2017 1:00 AM 53 61 0 0 5.88
3/16/2017 2:00 AM 52 65 0 0 4.72
3/16/2017 3:00 AM 53 67 0 0 6.47
3/16/2017 4:00 AM 53 69 0 0 6.19
3/16/2017 5:00 AM 53 75 0 0 6.38
3/16/2017 6:00 AM 54 81 0 0 6.15
3/16/2017 7:00 AM 55 85 0 0 6.35
3/16/2017 8:00 AM 56 87 0.01 0 6.34
3/16/2017 9:00 AM 57 87 0.09 0 5.76
3/16/2017 10:00 AM 58 85 0.29 0 7.4
3/16/2017 11:00 AM 59 83 0.6 0 8.46
3/16/2017 12:00 PM 60 81 0.71 0 8.19
3/16/2017 1:00 PM 61 80 0.69 0 7.59
3/16/2017 2:00 PM 62 77 0.74 0 6.82
3/16/2017 3:00 PM 64 74 0.86 0 7.57
3/16/2017 4:00 PM 66 70 1.2 0 8.99
3/16/2017 5:00 PM 69 67 1.15 0 9.68
3/16/2017 6:00 PM 69 67 0.77 0 10.22
3/16/2017 7:00 PM 70 65 0.46 0 9.1
3/16/2017 8:00 PM 69 66 0.05 0 7.95
3/16/2017 9:00 PM 68 71 0 0 5.13
3/16/2017 10:00 PM 67 73 0 0 4.35
3/16/2017 11:00 PM 67 74 0 0 5.07
Data Summary 60 73 7.62 0.00 6.88